Погода в Чернигове

Погода в Чернигове : погода сейчас, прогноз погоды и архив. Всё, что Вы хотите узнать о погоде в Чернигове!

Хотите узнать прогноз погоды в Чернигове? Тогда Вам сюда: Погода в Чернигове

Поиск расширенной информации на нашем сайте:

Полезная информация:

Другие новости

Новости СМИ2

Главная страница сайта

Новости сайта

03.07.2017

Напоминаем, что на нашем специализированном сайте Метеоцентр.Азия вы можете получить высокодетализированные автоматические прогнозы погоды по пунктам России, СНГ и мира в авиационном формате (включающие направление и скорость ветра, видимость, явления погоды, количество и форму облачности, нижнюю и верхнюю границу облачности).

Рекомендуем:

Погода в Чернигове - сегодня

Время (UTC), дата Ветер
(°,м/с) 
Видим.   Явления Облачность Т
(°С)
Тd
(°С)
f(%) Тe
(°С)
Pmin
(гПа)
dP
(гПа)
Po
(мм)
O2
(г/м3)
Тmin Tmax R s Состояние
почвы
21 18.05.19 070 (В) н/о    3/0 верхняя 
[Ci fib]
+16.2 +6.7 53 +17  1014.9  0.2  751  284           
00 19.05.19 070 (В) н/о    3/0 верхняя 
[Ci fib]
+13.2 +6.5 64 +14  1015.2  0.1  751  287           
03 19.05.19 090 (В) 10 км    6/0 верхняя 
[Ci fib]
+12.6 +7.5 71 +14  1015.4  0.2  751  288           
06 19.05.19 070 (В) 20000 м    4/0 верхняя 
[Ci fib]
+19.4 +9.4 52 +21  1015.6  0.5  751  281  +10.5         
09 19.05.19 070 (В) 20000 м    1/0 верхняя 
[Ci fib]
+23.4 +9.2 40 +24  1015.5  0.1  751  277           
12 19.05.19 090 (В) 20000 м    ясно 
+25 +6.6 31 +25  1015.1  -0.3  751  276           
15 19.05.19 070 (В) 20000 м    ясно 
+25.1 +8.6 35 +25  1014.8  -0.3  751  276           
18 19.05.19 070 (В) 10 км    5/0 средняя, верхняя 
[Ac trans|Ci fib]
+19.8 +10.4 55 +23  1015.2  0.2  751  280    +25.7       
21 19.05.19 080 (В) н/о    4/0 верхняя 
[Ci fib]
+16.1 +10 67 +18  1016.3  0.9  752  284           
00 20.05.19 090 (В) н/о    3/0 верхняя 
[Ci fib]
+14 +9.9 76 +16  1016.8  0.4  752  286           
03 20.05.19 070 (В) 10 км    1/0 верхняя 
[Ci fib]
+14.4 +9.3 71 +15  1017.6  0.8  752  286           
06 20.05.19 120 (ЮВ) 20000 м    ясно 
+21.3 +10.3 49 +23  1017.8  0.5  753  280  +12         
09 20.05.19 120 (ЮВ) 20000 м    ясно 
+26.6 +6.9 29 +27  1017.5  -0.1  753  275           
12 20.05.19 110 (В) 20000 м    ясно 
+26.9 +7.4 29 +27  1016.6  -0.8  752  275           
15 20.05.19 110 (В) 20000 м    ясно 
+25.9 +10.1 37 +27  1015.2  -1.5  751  275           
18 20.05.19 тихо ()   20000 м    ясно 
+20.6 +9.1 48 +21  1015.1  -0.3  751  280    +27.4       
21 20.05.19 110 (В) н/о    4/0 верхняя 
[Ci fib]
+18.2 +8.3 52 +20  1015.9  0.7  751  282           
00 21.05.19 120 (ЮВ) н/о    4/0 верхняя 
[Ci fib]
+16.6 +9.3 62 +17  1015.5  -0.5  751  284           
03 21.05.19 120 (ЮВ) 10 км    4/0 верхняя 
[Ci fib]
+15 +8.5 65 +16  1015.2  -0.4  751  285           
06 21.05.19 100 (В) 10 км    8/0 верхняя 
[Ci]
+20.2 +10.9 55 +23  1014.6  -0.3  750  280  +13.8         
09 21.05.19 120 (ЮВ) 20000 м  в посл. час ливневой дождь  10/3 1000 м кучево-дожд., верхняя 
[Cb calv|Cs]
+21.8 +10.1 47 +23  1013.9  -0.6  750  278           
12 21.05.19 120 (ЮВ) 20000 м  слаб. ливневой дождь  10/3 1000 м кучево-дожд., верхняя 
[Cb calv|Cs]
+20.2 +10.7 54 +22  1013.7  -0.3  750  279      0.1     
15 21.05.19 100 (В) 20000 м  {ливн. осадки}  10/0 верхняя 
[Cs]
+21.4 +9.3 46 +22  1011.6  -2  748  278           
18 21.05.19 120 (ЮВ) 10 км  {ливн. осадки}  10/4 1000 м кучево-дожд., верхняя 
[Cb calv|Cs]
+19.1 +11.5 61 +23  1011.2  -0.5  748  280    +23.3  0.4     
21 21.05.19 тихо ()   н/о  в посл. час ливневой дождь  8/0 средняя, верхняя 
[Ac trans|Ci]
+15.6 +13.3 86 +22  1011.4  748  282           
Время (UTC), дата Ветер
(°,м/с) 
Видим.   Явления Облачность Т
(°С)
Тd
(°С)
f(%) Тe
(°С)
Pmin
(гПа)
dP
(гПа)
Po
(мм)
O2
(г/м3)
Тmin Tmax R s Состояние
почвы

Для получения пояснительной информации подведите курсор к названию столбца.

ПОГОДА в Чернигове - архив

Всё, что Вы хотите узнать о погоде в Чернигове - удобно и подробно!

Выберите нужную дату (начиная с 1 января 2018* года) и нажмите кнопку "Найти".
Будут отображены архивные сводки погоды по пункту Чернигов, начиная с указанной даты.


Отображать данные в формате CSV (для использования в таблицах Excel)


Внимание! Наш архив погоды предназначен исключительно для личного некоммерческого использования в познавательных целях. Если Вам необходимы официальные справки о состоянии погоды (для производственных, юридических, коммерческих и т.п. целей), обращайтесь в органы Росгидромета.

*Примечание: данная дата относится к архиву по метеостанциям СССР (Россия, СНГ, Балтия).
Архив по метеостанциям Зарубежной Европы и Азии (кроме Китая) хранится 10 дней, по другим регионам земного шара (Китай, Африка, Америка, Австралия, Океания) - 1 день.

Чернигов - район местоположения метеостанции


Название, широта, долгота, высота метеостанции:
Чернигов 51.5°ш. 31.2°д. 141 м над ур. моря [Украина]

Дополнительная информация

В oтличие oт бoльшинства пoгoдных сайтoв мы публикуем пoдрoбную метеoинфoрмацию в детальнoм прoфессиoнальнoм фoрмате.

Характеристики температуры и влажнoсти вoздуха измеряются на высoте 2 м в тени вдали oт зданий и деревьев.
Скoрoсть ветра измеряется на высoте 10 м (на урoвне рoста челoвека скoрoсть ветра ниже в 1.5-2 раза). Если метеoстанция нахoдится в гoрoде или в лесу, тo скoрoсть ветра занижена на 2-4 м/с пo сравнению с oткрытым местoм. Скoрoсть ветра над акватoриями крупных рек и oзёр, а также на вершинах хoлмoв на 2-5 м/с выше, чем в oбычных услoвиях.
Атмoсфернoе давление в разных тoчках местнoсти мoжет значительнo oтличаться oт давления на метеoстанции, в зависимoсти oт услoвий рельефа (при пoдъёме на 10 м давление пoнижается примернo на 1 мм рт.ст.).